Flag for Canada Weather past 2 weeks in Rainy River, Ontario, Canada

Now
62 °F

Overcast.


Feels Like: 62 °F
Forecast: 59 / 71 °F
Wind: 24 mph from Southwest

Location: Baudette International Airport

Current Time: Jul 29, 2015 at 4:50:53 AM

Latest Report: Jul 29, 2015 at 3:53 AM


Visibility: 10 mi

Pressure: 29.49 "Hg

Humidity: 73%

Dew point: 53 °F

Location of Rainy RiverLocation

Historic Weather in Rainy River — Graph

°F

Rainy River temperature yesterday

Maximum temperature yesterday: 80 °F (at 3:53 PM)
Minimum temperature yesterday: 66 °F (at 11:53 PM)
Average temperature yesterday: 73 °F

Past Weeks' High & Low Weather Summary

 TemperatureHumidityPressure
High89 °F (Jul 26, 3:53 PM)97% (Jul 16, 4:53 AM)29.97 "Hg (Jul 16, 4:53 AM)
Low50 °F (Jul 22, 5:53 AM)41% (Jul 19, 3:53 PM)29.49 "Hg (Jul 29, 2:53 AM)
Average71 °F74%29.80 "Hg
* Reported Jul 14 2:53 AM — Jul 29 2:53 AM, Rainy River, Weather by CustomWeather, © 2015

Note: Actual official high and low records may vary slightly from our data, if they occured in-between our weather recording intervals... More about our weather records

Advertising

Rainy River weather history for previous 24 hours

 ConditionsComfort  
Time TempWeatherWind HumidityBarometerVisibility
2:53 AM
Wed, Jul 29
63 °FOvercast.26 mph68%29.49 "Hg10 mi
1:53 AM65 °FOvercast.26 mph56%29.52 "Hg10 mi
12:53 AM68 °FOvercast.21 mph51%29.52 "Hg10 mi
11:53 PM
Tue, Jul 28
66 °FPassing clouds.18 mph56%29.56 "Hg10 mi
10:53 PM68 °FPassing clouds.18 mph55%29.59 "Hg10 mi
9:53 PM69 °FPartly sunny.15 mph57%29.61 "Hg10 mi
8:53 PM70 °FPartly sunny.14 mph57%29.63 "Hg10 mi
7:53 PM73 °FPartly sunny.12 mph51%29.64 "Hg10 mi
6:53 PM74 °FPassing clouds.23 mph52%29.64 "Hg10 mi
5:53 PM76 °FMild.21 mph56%29.63 "Hg10 mi
4:53 PM78 °FPassing clouds.22 mph54%29.62 "Hg10 mi
3:53 PM80 °FScattered clouds.22 mph60%29.59 "Hg10 mi
2:53 PM78 °FBroken clouds.18 mph69%29.60 "Hg10 mi
1:53 PM77 °FCloudy.13 mph77%29.60 "Hg10 mi
12:53 PM77 °FBroken clouds.13 mph79%29.60 "Hg10 mi
11:58 AM73 °FLight rain. Fog.9 mph90%29.64 "Hg3 mi
10:53 AM73 °FMostly cloudy.10 mph94%29.64 "Hg10 mi
10:03 AM72 °FLow clouds.12 mph93%29.67 "Hg10 mi
9:53 AM72 °FLight rain. Mostly cloudy.12 mph93%29.66 "Hg7 mi
8:53 AM73 °FLight rain. Mostly cloudy.14 mph88%29.66 "Hg9 mi
7:53 AM72 °FOvercast.10 mph87%29.67 "Hg10 mi
7:04 AM72 °FPassing clouds.9 mph87%29.69 "Hg10 mi
6:53 AM72 °FPartly sunny.9 mph87%29.68 "Hg10 mi
5:53 AM72 °FOvercast.10 mph87%29.70 "Hg10 mi
4:53 AM71 °FPassing clouds.10 mph87%29.70 "Hg10 mi
Weather by CustomWeather, © 2015

See weather overviewHow to use our weather pages